Location: Fort Wayne
(41.1310°N, 85.1290°W)
Time: 04:56:08
(UTC-05:00)

Amateur Radio Satellites - All Passes

Search period start: 28 February 2017 04:26
Search period end: 01 March 2017 04:26
Location: Fort Wayne, 41.1310°N, 85.1290°W

Satellite Date Start Highest point End Downlink Frequencies (MHz)
Time Altitude Azimuth
AO-7 28 Feb 04:32:02 04:40:24 81° 107° (ESE) 04:48:41 .
ITAMSAT 1 28 Feb 04:33:31 04:38:37 53° 289° (WNW) 04:43:39 435.822/435.867
M-CUBED/EXP-1 PRIME 28 Feb 04:54:37 04:57:51 64° 70° (ENE) 05:01:06 437.505
MOZHAYETS 4 28 Feb 04:57:48 04:59:00 11° 271° (W) 05:00:11
KKS-1 28 Feb 05:03:11 05:07:05 31° 263° (W) 05:11:02 437.445
BEESAT 3 28 Feb 05:10:24 05:13:16 20° 112° (ESE) 05:16:11 437.485
SO-50 28 Feb 05:20:42 05:23:22 15° 39° (NE) 05:26:01 436.795
STARS 28 Feb 05:28:25 05:32:26 36° 262° (W) 05:36:30 437.465
AO-85 28 Feb 05:54:17 05:56:30 14° 319° (NW) 05:58:39 145.980
BEESAT 2 28 Feb 05:55:05 05:58:19 25° 113° (ESE) 06:01:37 435.950
LilacSat-2 28 Feb 05:55:40 05:58:02 16° 92° (E) 06:00:22 437.200
CUTE-I 28 Feb 06:04:11 06:08:18 22° 93° (E) 06:12:22 437.470
CUBESAT XI-V 28 Feb 06:04:12 06:06:31 14° 270° (W) 06:08:51 437.345
STRAND 1 28 Feb 06:04:25 06:08:08 21° 63° (ENE) 06:11:54 437.568
AO-7 28 Feb 06:26:01 06:32:16 25° 307° (NW) 06:38:30 .
DOVE 4 28 Feb 06:33:00 06:37:44 54° 100° (E) 06:42:41 437.250
KAITUO 1B 28 Feb 06:38:00 06:41:34 39° 98° (E) 06:45:04 145.475/437.950
BEESAT 3 28 Feb 06:47:02 06:50:38 35° 309° (NW) 06:54:19 437.485
XW-2F 28 Feb 06:47:52 06:51:39 65° 100° (E) 06:55:23 145.980 - 146.000
XW-2D 28 Feb 06:54:27 06:58:17 85° 98° (E) 07:02:04 145.860 - 145.880
ISS 28 Feb 06:56:19 06:59:20 34° 137° (SE) 07:02:22 437.550
XW-2B 28 Feb 06:59:35 07:03:25 86° 288° (WNW) 07:07:12 145.730 - 145.750
SO-50 28 Feb 06:59:54 07:04:25 82° 238° (WSW) 07:08:53 436.795
XW-2C 28 Feb 07:08:24 07:12:13 65° 285° (WNW) 07:15:57 145.795 - 145.815
NUDT-PHONESAT 28 Feb 07:08:55 07:12:42 80° 283° (WNW) 07:16:25 437.300
Tancredo 1 28 Feb 07:13:49 07:17:00 55° 140° (SE) 07:20:11 437.200
CUTE 1.7 + AOD 2 28 Feb 07:27:32 07:30:41 20° 93° (E) 07:33:49 437.475
LilacSat-2 28 Feb 07:28:55 07:32:26 35° 288° (WNW) 07:35:54 437.200
XW-2A 28 Feb 07:32:14 07:35:21 30° 97° (E) 07:38:26 145.665 - 145.685
BEESAT 2 28 Feb 07:32:29 07:35:59 29° 311° (NW) 07:39:32 435.950
HO-68 28 Feb 07:37:00 07:43:26 35° 97° (E) 07:49:50 435.675
O/OREOS (USA 219) 28 Feb 07:37:06 07:40:55 25° 58° (ENE) 07:44:44 437.305
STRAND 1 28 Feb 07:41:57 07:46:56 50° 260° (W) 07:51:58 437.568
CUTE-I 28 Feb 07:43:24 07:48:34 48° 290° (WNW) 07:53:42 437.470
AAUSAT CUBESAT 2 28 Feb 07:59:10 08:01:26 14° 92° (E) 08:03:40 437.432
DOVE 4 28 Feb 08:11:50 08:15:03 18° 295° (WNW) 08:18:22 437.250
KAITUO 1B 28 Feb 08:13:11 08:15:14 14° 294° (WNW) 08:17:16 145.475/437.950
AO-73 28 Feb 08:16:03 08:16:39 10° 88° (E) 08:17:15 145.935
SEEDS 28 Feb 08:18:02 08:22:05 49° 99° (E) 08:26:07 437.485
CUBEBUG 2 28 Feb 08:18:11 08:22:34 36° 97° (E) 08:26:52 437.445
ISS 28 Feb 08:32:48 08:35:48 31° 334° (NNW) 08:38:48 437.550
TIGRISAT 28 Feb 08:34:59 08:36:16 11° 60° (ENE) 08:37:34 435.000
UNISAT 6 28 Feb 08:35:10 08:36:56 12° 61° (ENE) 08:38:44 437.425
UWE-3 28 Feb 08:48:42 08:53:12 47° 98° (E) 08:57:35 435.000/436.395/437.385
Tancredo 1 28 Feb 08:50:44 08:53:27 24° 338° (NNW) 08:56:10 437.200
PRISM 28 Feb 08:59:01 09:02:55 46° 72° (ENE) 09:06:49 437.425
ZACube-1 28 Feb 09:02:31 09:06:47 38° 97° (E) 09:10:55 437.345
CUTE 1.7 + AOD 2 28 Feb 09:02:49 09:06:34 32° 290° (WNW) 09:10:19 437.475
XW-2A 28 Feb 09:05:50 09:07:51 15° 293° (WNW) 09:09:51 145.665 - 145.685
O/OREOS (USA 219) 28 Feb 09:16:15 09:20:21 33° 255° (WSW) 09:24:26 437.305
HO-68 28 Feb 09:24:32 09:31:15 45° 294° (WNW) 09:37:56 435.675
AAUSAT CUBESAT 2 28 Feb 09:33:12 09:37:07 44° 287° (WNW) 09:41:00 437.432
FO-29 28 Feb 09:48:10 09:55:00 44° 66° (ENE) 10:02:18 435.910
AO-73 28 Feb 09:48:53 09:53:24 73° 285° (WNW) 09:57:49 145.935
Oscar 11 28 Feb 09:51:27 09:55:47 78° 283° (WNW) 10:00:04 .
SEEDS 28 Feb 09:55:07 09:57:21 14° 296° (WNW) 09:59:35 437.485
CUBEBUG 2 28 Feb 09:55:09 09:58:58 24° 293° (WNW) 10:02:43 437.445
TIGRISAT 28 Feb 10:07:41 10:12:13 82° 260° (W) 10:16:52 435.000
UNISAT 6 28 Feb 10:08:26 10:12:58 75° 259° (WSW) 10:17:37 437.425
YUBILEINY 28 Feb 10:10:15 10:18:40 53° 90° (E) 10:27:06 435.215
ISS 28 Feb 10:11:12 10:13:02 14° 354° (N) 10:14:53 437.550
AIST 2D 28 Feb 10:19:16 10:21:29 16° 67° (ENE) 10:23:43 435.315
UWE-3 28 Feb 10:26:04 10:29:15 19° 295° (WNW) 10:32:24 435.000/436.395/437.385
Tancredo 1 28 Feb 10:28:58 10:30:35 13° 358° (N) 10:32:12 437.200
EO-79 28 Feb 10:29:01 10:31:36 16° 65° (ENE) 10:34:13 145.935-145.965
PRISM 28 Feb 10:36:24 10:38:27 13° 268° (W) 10:40:29 437.425
DELFI C3 28 Feb 10:36:26 10:40:20 73° 285° (WNW) 10:44:15 145.870
ZACube-1 28 Feb 10:39:23 10:42:45 21° 294° (WNW) 10:46:06 437.345
NANOSAT C BR1 28 Feb 10:43:13 10:46:22 21° 67° (ENE) 10:49:32 145.865
POLYITAN 1 28 Feb 10:46:35 10:50:02 25° 68° (ENE) 10:53:31 437.675
QB50P2 28 Feb 10:49:30 10:53:08 28° 69° (ENE) 10:56:47 145.880/145.840
FO-29 28 Feb 11:33:17 11:39:58 40° 265° (W) 11:47:12 435.910
DUCHIFAT 1 28 Feb 11:47:53 11:52:06 83° 260° (W) 11:56:21 145.980
ISS 28 Feb 11:48:15 11:50:30 17° 14° (NNE) 11:52:45 437.550
AIST 2D 28 Feb 11:51:17 11:54:28 30° 263° (W) 11:57:41 435.315
LO-87 28 Feb 11:52:47 11:56:23 71° 284° (WNW) 11:59:59 145.935 - 145.965
Oscar 19 28 Feb 11:54:20 11:57:09 15° 61° (ENE) 11:59:59 437.125/150
EO-79 28 Feb 12:02:55 12:06:59 46° 261° (W) 12:11:05 145.935-145.965
Tancredo 1 28 Feb 12:05:22 12:07:48 19° 18° (NNE) 12:10:14 437.200
YUBILEINY 28 Feb 12:07:57 12:15:45 35° 290° (WNW) 12:23:36 435.215
50 SAT 28 Feb 12:08:44 12:10:06 12° 92° (E) 12:11:28 437.505
SPROUT 28 Feb 12:14:38 12:17:58 22° 94° (E) 12:21:17 437.525
DX 1 28 Feb 12:14:39 12:15:29 10° 90° (E) 12:16:20 434.975-435.025
NANOSAT C BR1 28 Feb 12:18:01 12:21:51 34° 263° (W) 12:25:44 145.865
ESTCUBE 1 28 Feb 12:20:53 12:25:23 84° 285° (WNW) 12:29:51 437.505/2401.250
POLYITAN 1 28 Feb 12:22:02 12:25:42 28° 264° (W) 12:29:25 437.675
QB50P2 28 Feb 12:25:24 12:28:53 24° 265° (W) 12:32:23 145.880/145.840
BUGSAT 1 28 Feb 12:31:12 12:35:15 78° 258° (WSW) 12:39:24 437.445
VELOX 1 28 Feb 12:31:33 12:35:44 40° 99° (E) 12:39:53 145.980
AO-85 28 Feb 12:42:25 12:46:19 64° 56° (NE) 12:50:15 145.980
Gurwin Techsat 1B 28 Feb 13:04:16 13:09:05 37° 68° (ENE) 13:13:56 435.225
ISS 28 Feb 13:24:13 13:27:29 60° 32° (NNE) 13:30:44 437.550
BEESAT 3 28 Feb 13:27:02 13:29:28 15° 42° (NE) 13:31:54 437.485
Oscar 19 28 Feb 13:30:43 13:35:51 72° 258° (WSW) 13:41:00 437.125/150
50 SAT 28 Feb 13:40:09 13:43:23 36° 288° (WNW) 13:46:35 437.505
AO-7 28 Feb 13:40:34 13:47:01 26° 54° (NE) 13:53:26 .
Tancredo 1 28 Feb 13:41:11 13:44:26 89° 217° (SW) 13:47:38 437.200
DX 1 28 Feb 13:47:46 13:52:06 68° 286° (WNW) 13:56:26 434.975-435.025
SPROUT 28 Feb 13:50:04 13:53:55 32° 290° (WNW) 13:57:45 437.525
UKube-1 28 Feb 13:52:50 13:57:10 84° 282° (WNW) 14:01:29 .
VELOX 1 28 Feb 14:08:44 14:11:53 20° 295° (WNW) 14:15:03 145.980
BEESAT 2 28 Feb 14:12:42 14:15:34 18° 44° (NE) 14:18:26 435.950
ITAMSAT 1 28 Feb 14:12:47 14:17:15 30° 66° (ENE) 14:21:43 435.822/435.867
AO-85 28 Feb 14:25:39 14:26:09 10° 251° (WSW) 14:26:40 145.980
PCSat 28 Feb 14:27:08 14:28:14 11° 101° (ESE) 14:29:21 145.827
Gurwin Techsat 1B 28 Feb 14:44:33 14:49:04 28° 265° (W) 14:53:37 435.225
ISS 28 Feb 15:01:37 15:03:37 15° 229° (SW) 15:05:37 437.550
BEESAT 3 28 Feb 15:03:29 15:07:29 63° 240° (WSW) 15:11:25 437.485
MOZHAYETS 4 28 Feb 15:12:55 15:15:57 17° 92° (E) 15:18:56
ITUPSAT 1 28 Feb 15:18:03 15:22:44 51° 100° (E) 15:27:22 437.325
BEESAT 28 Feb 15:22:12 15:26:56 58° 101° (E) 15:31:37 436.000
NO-84 28 Feb 15:23:40 15:25:31 15° 124° (SE) 15:27:27 435.350 FM
AO-7 28 Feb 15:30:34 15:38:56 78° 253° (WSW) 15:47:20 .
BEESAT 2 28 Feb 15:49:41 15:53:37 49° 242° (WSW) 15:57:30 435.950
ITAMSAT 1 28 Feb 15:51:53 15:56:35 34° 263° (W) 16:01:21 435.822/435.867
PCSat 28 Feb 16:05:20 16:10:44 85° 119° (ESE) 16:16:12 145.827
RS-15 28 Feb 16:14:25 16:24:51 38° 105° (ESE) 16:35:35 29.354- 29.394
CUBESAT XI-V 28 Feb 16:22:13 16:24:44 14° 91° (E) 16:27:15 437.345
MOZHAYETS 4 28 Feb 16:48:56 16:53:20 46° 288° (WNW) 16:57:41
KKS-1 28 Feb 16:53:24 16:57:45 48° 100° (E) 17:02:04 437.445
ITUPSAT 1 28 Feb 16:56:56 17:00:10 18° 297° (WNW) 17:03:21 437.325
NO-84 28 Feb 16:59:42 17:02:45 45° 323° (NW) 17:06:07 435.350 FM
BEESAT 28 Feb 17:01:18 17:04:13 16° 298° (WNW) 17:07:07 436.000
STARS 28 Feb 17:17:22 17:21:32 38° 98° (E) 17:25:40 437.465
KAITUO 1B 28 Feb 17:18:33 17:21:18 19° 68° (ENE) 17:24:04 145.475/437.950
CUTE-I 28 Feb 17:25:40 17:30:29 36° 68° (ENE) 17:35:20 437.470
XW-2F 28 Feb 17:28:44 17:32:06 30° 71° (ENE) 17:35:30 145.980 - 146.000
AO-7 28 Feb 17:28:45 17:32:54 14° 271° (W) 17:37:06 .
XW-2D 28 Feb 17:35:25 17:39:00 38° 73° (ENE) 17:42:36 145.860 - 145.880
DOVE 4 28 Feb 17:38:56 17:42:54 47° 73° (ENE) 17:46:58 437.250
XW-2B 28 Feb 17:40:29 17:44:08 42° 73° (ENE) 17:47:48 145.730 - 145.750
NUDT-PHONESAT 28 Feb 17:48:00 17:51:35 42° 73° (ENE) 17:55:11 437.300
XW-2C 28 Feb 17:49:09 17:52:55 56° 74° (ENE) 17:56:43 145.795 - 145.815
PCSat 28 Feb 17:51:19 17:54:51 17° 318° (NW) 17:58:25 145.827
CUBESAT XI-V 28 Feb 17:57:57 18:02:26 54° 287° (WNW) 18:06:54 437.345
XW-2A 28 Feb 18:05:30 18:06:38 11° 65° (ENE) 18:07:45 145.665 - 145.685
M-CUBED/EXP-1 PRIME 28 Feb 18:06:14 18:10:03 49° 106° (ESE) 18:14:09 437.505
HO-68 28 Feb 18:06:15 18:12:02 27° 59° (ENE) 18:17:48 435.675
LilacSat-2 28 Feb 18:09:52 18:13:44 76° 257° (WSW) 18:17:39 437.200
CUTE 1.7 + AOD 2 28 Feb 18:20:45 18:23:18 16° 65° (ENE) 18:25:51 437.475
RS-15 28 Feb 18:24:38 18:36:34 68° 308° (NW) 18:48:58 29.354- 29.394
KKS-1 28 Feb 18:31:01 18:33:55 17° 296° (WNW) 18:36:49 437.445
NO-84 28 Feb 18:39:38 18:41:14 13° 345° (NNW) 18:42:54 435.350 FM
AAUSAT CUBESAT 2 28 Feb 18:51:07 18:51:48 10° 62° (ENE) 18:52:28 437.432
KAITUO 1B 28 Feb 18:51:48 18:55:08 29° 264° (W) 18:58:29 145.475/437.950
STARS 28 Feb 18:54:20 18:57:36 20° 294° (WNW) 19:00:51 437.465
XW-2F 28 Feb 19:03:34 19:06:17 18° 267° (W) 19:09:02 145.980 - 146.000
CUTE-I 28 Feb 19:05:56 19:10:32 29° 264° (W) 19:15:12 437.470
SEEDS 28 Feb 19:09:27 19:13:15 34° 71° (ENE) 19:17:04 437.485
XW-2D 28 Feb 19:11:10 19:13:21 15° 268° (W) 19:15:33 145.860 - 145.880
CUBEBUG 2 28 Feb 19:16:06 19:19:57 29° 68° (ENE) 19:23:57 437.445
XW-2B 28 Feb 19:16:40 19:18:32 13° 269° (W) 19:20:25 145.730 - 145.750
DOVE 4 28 Feb 19:18:56 19:20:56 13° 270° (W) 19:22:58 437.250
NUDT-PHONESAT 28 Feb 19:24:02 19:25:43 13° 269° (W) 19:27:25 437.300
XW-2C 28 Feb 19:27:14 19:27:27 10° 270° (W) 19:27:41 145.795 - 145.815
XW-2A 28 Feb 19:35:46 19:39:00 41° 261° (W) 19:42:17 145.665 - 145.685
M-CUBED/EXP-1 PRIME 28 Feb 19:42:00 19:44:13 15° 299° (WNW) 19:46:30 437.505
UWE-3 28 Feb 19:45:14 19:49:22 37° 70° (ENE) 19:53:36 435.000/436.395/437.385
HO-68 28 Feb 19:52:10 19:59:15 62° 258° (WSW) 20:06:21 435.675
STRAND 1 28 Feb 19:52:19 19:57:23 55° 101° (E) 20:02:25 437.568
CUTE 1.7 + AOD 2 28 Feb 19:54:36 19:58:44 47° 261° (W) 20:02:52 437.475
ZACube-1 28 Feb 19:57:58 20:01:52 30° 69° (ENE) 20:05:52 437.345
NO-84 28 Feb 20:19:54 20:20:20 10° 7° (N) 20:20:48 435.350 FM
YUBILEINY 28 Feb 20:20:59 20:27:56 25° 66° (ENE) 20:34:48 435.215
AAUSAT CUBESAT 2 28 Feb 20:22:31 20:26:40 72° 259° (W) 20:30:49 437.432
RS-15 28 Feb 20:41:59 20:52:02 28° 337° (NNW) 21:02:14 29.354- 29.394
AO-73 28 Feb 20:43:29 20:47:58 84° 75° (ENE) 20:52:33 145.935
Oscar 11 28 Feb 20:45:35 20:49:55 78° 76° (ENE) 20:54:17 .
SEEDS 28 Feb 20:45:53 20:49:01 20° 267° (W) 20:52:08 437.485
CUBEBUG 2 28 Feb 20:52:42 20:56:30 27° 266° (W) 21:00:27 437.445
SO-50 28 Feb 21:14:03 21:18:13 32° 115° (ESE) 21:22:21 436.795
DELFI C3 28 Feb 21:21:24 21:25:17 59° 75° (ENE) 21:29:11 145.870
UWE-3 28 Feb 21:22:28 21:25:55 21° 267° (W) 21:29:26 435.000/436.395/437.385
STRAND 1 28 Feb 21:32:34 21:36:06 19° 298° (WNW) 21:39:39 437.568
ZACube-1 28 Feb 21:34:22 21:38:07 26° 266° (W) 21:41:56 437.345
O/OREOS (USA 219) 28 Feb 21:49:29 21:53:15 27° 103° (ESE) 21:57:03 437.305
NO-84 28 Feb 21:56:06 21:59:13 22° 27° (NNE) 22:02:29 435.350 FM
TIGRISAT 28 Feb 21:59:58 22:03:36 22° 93° (E) 22:07:10 435.000
UNISAT 6 28 Feb 22:00:45 22:04:33 24° 94° (E) 22:08:17 437.425
PRISM 28 Feb 22:15:12 22:19:18 79° 103° (ESE) 22:23:23 437.425
YUBILEINY 28 Feb 22:16:51 22:25:31 70° 267° (W) 22:34:06 435.215
LO-87 28 Feb 22:28:45 22:32:05 41° 73° (ENE) 22:35:26 145.935 - 145.965
FO-29 28 Feb 22:43:22 22:50:15 38° 94° (E) 22:56:25 435.910
SO-50 28 Feb 22:54:30 22:58:39 31° 312° (NW) 23:02:47 436.795
RS-15 28 Feb 23:00:45 23:10:18 24° 13° (NNE) 23:19:43 29.354- 29.394
SPROUT 28 Feb 23:08:31 23:11:17 17° 65° (ENE) 23:14:03 437.525
DX 1 28 Feb 23:11:16 23:11:36 10° 60° (ENE) 23:11:56 434.975-435.025
PCSat 28 Feb 23:11:48 23:14:15 13° 38° (NE) 23:16:43 145.827
AIST 2D 28 Feb 23:16:55 23:19:27 18° 94° (E) 23:21:58 435.315
ESTCUBE 1 28 Feb 23:19:53 23:24:24 87° 76° (ENE) 23:28:55 437.505/2401.250
VELOX 1 28 Feb 23:28:40 23:32:38 35° 70° (ENE) 23:36:37 145.980
O/OREOS (USA 219) 28 Feb 23:28:40 23:32:34 29° 301° (WNW) 23:36:30 437.305
DUCHIFAT 1 28 Feb 23:33:07 23:35:43 16° 92° (E) 23:38:19 145.980
NO-84 28 Feb 23:33:12 23:37:15 76° 223° (SW) 23:41:34 435.350 FM
TIGRISAT 28 Feb 23:36:03 23:40:22 37° 290° (WNW) 23:44:38 435.000
UNISAT 6 28 Feb 23:37:03 23:41:18 34° 290° (WNW) 23:45:28 437.425
EO-79 28 Feb 23:47:44 23:51:25 27° 96° (E) 23:55:04 145.935-145.965
NANOSAT C BR1 01 Mar 00:01:59 00:05:57 36° 98° (E) 00:09:52 145.865
LO-87 01 Mar 00:04:39 00:05:45 11° 269° (W) 00:06:52 145.935 - 145.965
POLYITAN 1 01 Mar 00:06:12 00:10:20 44° 99° (E) 00:14:26 437.675
QB50P2 01 Mar 00:09:18 00:13:30 52° 100° (E) 00:17:41 145.880/145.840
50 SAT 01 Mar 00:13:27 00:16:55 76° 77° (ENE) 00:20:24 437.505
BUGSAT 1 01 Mar 00:14:06 00:16:39 15° 92° (E) 00:19:11 437.445
YUBILEINY 01 Mar 00:17:40 00:20:33 12° 287° (WNW) 00:23:27 435.215
FO-29 01 Mar 00:28:16 00:35:15 42° 294° (WNW) 00:41:34 435.910
DX 1 01 Mar 00:42:48 00:47:07 81° 258° (WSW) 00:51:27 434.975-435.025
SPROUT 01 Mar 00:42:48 00:46:51 43° 261° (W) 00:50:56 437.525
UKube-1 01 Mar 00:46:48 00:51:06 80° 73° (ENE) 00:55:24 .
AIST 2D 01 Mar 00:49:42 00:52:40 25° 289° (WNW) 00:55:37 435.315
PCSat 01 Mar 00:53:17 00:58:43 66° 59° (ENE) 01:04:06 145.827
VELOX 1 01 Mar 01:05:52 01:09:10 21° 266° (W) 01:12:28 145.980
DUCHIFAT 1 01 Mar 01:07:32 01:11:36 44° 288° (WNW) 01:15:39 145.980
NO-84 01 Mar 01:13:44 01:14:25 10° 238° (WSW) 01:15:07 435.350 FM
RS-15 01 Mar 01:14:48 01:26:47 52° 45° (NE) 01:38:18 29.354- 29.394
Gurwin Techsat 1B 01 Mar 01:21:52 01:24:36 14° 90° (E) 01:27:20 435.225
EO-79 01 Mar 01:23:32 01:27:05 26° 292° (WNW) 01:30:37 145.935-145.965
NANOSAT C BR1 01 Mar 01:38:17 01:41:24 20° 294° (WNW) 01:44:30 145.865
Oscar 19 01 Mar 01:42:27 01:47:15 39° 98° (E) 01:52:02 437.125/150
POLYITAN 1 01 Mar 01:43:00 01:45:46 17° 295° (WNW) 01:48:31 437.675
QB50P2 01 Mar 01:46:29 01:48:51 15° 296° (WNW) 01:51:13 145.880/145.840
BUGSAT 1 01 Mar 01:48:09 01:52:13 45° 288° (WNW) 01:56:16 437.445
MOZHAYETS 4 01 Mar 02:14:55 02:17:58 18° 64° (ENE) 02:21:02
ITUPSAT 1 01 Mar 02:24:25 02:29:08 59° 73° (ENE) 02:33:53 437.325
BEESAT 01 Mar 02:28:12 02:32:57 66° 74° (ENE) 02:37:43 436.000
PCSat 01 Mar 02:38:08 02:41:31 17° 256° (WSW) 02:44:53 145.827
AO-85 01 Mar 02:57:15 03:00:45 22° 113° (ESE) 03:04:05 145.980
Gurwin Techsat 1B 01 Mar 02:59:45 03:05:04 72° 286° (WNW) 03:10:21 435.225
Oscar 19 01 Mar 03:22:12 03:26:21 25° 295° (WNW) 03:30:29 437.125/150
CUBESAT XI-V 01 Mar 03:25:43 03:28:25 15° 63° (ENE) 03:31:07 437.345
RS-15 01 Mar 03:27:44 03:39:26 55° 249° (WSW) 03:50:39 29.354- 29.394
AO-7 01 Mar 03:32:42 03:40:11 36° 98° (E) 03:47:35 .
MOZHAYETS 4 01 Mar 03:50:14 03:54:44 50° 261° (W) 03:59:16
KKS-1 01 Mar 03:51:12 03:55:22 43° 71° (ENE) 03:59:35 437.445
ITAMSAT 1 01 Mar 04:04:03 04:09:20 84° 104° (ESE) 04:14:33 435.822/435.867
ITUPSAT 1 01 Mar 04:04:42 04:07:20 15° 269° (W) 04:09:59 437.325
BEESAT 01 Mar 04:09:01 04:11:10 13° 270° (W) 04:13:19 436.000
STARS 01 Mar 04:13:49 04:17:45 34° 69° (ENE) 04:21:42 437.465
